{"data":{"norad_id":41185,"intl_designator":"2015-081G","name":"ORBCOMM FM113","alt_names":[],"object_type":"PAYLOAD","status":"ACTIVE","operator":null,"country":"ORB","launch_date":"2015-12-22","launch_site_code":"AFETR","launch_vehicle":null,"mission":null,"orbit_class":"UNKNOWN","rcs_meters":0.468,"size_class":null,"mass_kg":null,"dimensions":null,"purposes":["comms"],"wikipedia_slug":null,"has_3d_model":false,"image_url":null,"decayed_at":null,"tle_current":{"epoch":"2026-09-20T04:14:16.632960Z","epoch_age_seconds":42413,"freshness":"FRESH","line1":"1 41185U 15081G   26263.17658140  .00000215  00000+0  81606-4 0  9997","line2":"2 41185  46.9999 181.4600 0002282 288.7949  71.2689 14.58935756572806","mean_motion":14.58935756,"eccentricity":0.0002282,"inclination_deg":46.9999,"raan_deg":181.46,"arg_perigee_deg":288.7949,"mean_anomaly_deg":71.2689,"bstar":8.1606e-5,"rev_number":57280,"period_min":98.702084315768,"perigee_km":694.99796671879,"apogee_km":698.22688235615,"semimajor_km":7074.7494245375,"source":"CELESTRAK","updated_at":"2026-09-20T09:00:44.911094Z"}}}